Home > Weather > Kuala Lumpur > Past weeks

Flag for Malaysia Weather for the Past 2 Weeks in Kuala Lumpur, Malaysia

Now
86 °F

Broken clouds.


Feels Like: 92 °F
Forecast: 78 / 89 °F
Wind: 3 mph from North

Location: Sultan Abdul Aziz Shah-Subang

Current Time: Feb 9, 2016 at 11:30:45 AM

Latest Report: Feb 9, 2016 at 11:00 AM


Visibility: N/A

Pressure: 29.89 "Hg

Humidity: 62%

Dew point: 72 °F

Location of Kuala LumpurLocation

Historic Weather in Kuala Lumpur — Graph

°F

Kuala Lumpur Temperature Yesterday

Maximum temperature yesterday: 91 °F (at 2:00 PM)
Minimum temperature yesterday: 75 °F (at 6:00 AM)
Average temperature yesterday: 83 °F

High & Low Weather Summary for the Past Weeks

 TemperatureHumidityPressure
High95 °F (Jan 25, 3:00 PM)100% (Jan 30, 4:00 AM)29.95 "Hg (Jan 30, 4:00 AM)
Low75 °F (Feb 4, 4:00 AM)44% (Jan 25, 2:00 PM)29.71 "Hg (Feb 5, 5:00 PM)
Average83 °F78%29.84 "Hg
* Reported Jan 25 10:00 AM — Feb 9 10:00 AM, Kuala Lumpur, Weather by CustomWeather, © 2016

Note: Actual official high and low records may vary slightly from our data, if they occured in-between our weather recording intervals... More about our weather records

Advertising

Kuala Lumpur Weather History for the Previous 24 Hours

 ConditionsComfort  
Time TempWeatherWind HumidityBarometerVisibility
10:00 AM
Tue, Feb 9
84 °FBroken clouds.3 mph62%29.89 "HgN/A
9:00 AM81 °FBroken clouds.2 mph70%29.89 "HgN/A
8:00 AM77 °FPartly cloudy.1 mph83%29.86 "HgN/A
7:00 AM77 °FPartly cloudy.2 mph79%29.83 "Hg5 mi
6:00 AM77 °FPartly cloudy.2 mph83%29.83 "Hg5 mi
5:00 AM79 °FPartly cloudy.1 mph84%29.80 "Hg5 mi
4:00 AM79 °FPartly cloudy.1 mph84%29.83 "Hg3 mi
3:00 AM79 °FPartly cloudy.2 mph84%29.86 "Hg2 mi
2:00 AM79 °FPartly cloudy.No wind84%29.86 "Hg3 mi
1:00 AM81 °FPartly cloudy.1 mph79%29.89 "Hg3 mi
12:00 AM81 °FPartly cloudy.2 mph79%29.89 "Hg4 mi
11:00 PM
Mon, Feb 8
81 °FPartly cloudy.2 mph79%29.89 "HgN/A
10:00 PM82 °FPartly cloudy.2 mph74%29.86 "HgN/A
9:00 PM82 °FPartly cloudy.2 mph74%29.83 "HgN/A
8:00 PM84 °FBroken clouds.3 mph70%29.80 "HgN/A
7:00 PM86 °FBroken clouds.5 mph66%29.80 "HgN/A
6:00 PM86 °FPartly sunny.7 mph66%29.80 "HgN/A
5:00 PM91 °FBroken clouds.6 mph46%29.77 "HgN/A
4:00 PM91 °FBroken clouds.6 mph52%29.77 "HgN/A
3:00 PM91 °FPartly sunny.7 mph49%29.80 "HgN/A
2:00 PM91 °FBroken clouds.7 mph49%29.83 "HgN/A
1:00 PM90 °FBroken clouds.2 mph55%29.86 "HgN/A
12:00 PM88 °FPartly sunny.6 mph52%29.89 "HgN/A
11:00 AM86 °FPartly sunny.5 mph59%29.89 "HgN/A
Weather by CustomWeather, © 2016

See weather overviewHow to use our weather pages